Location: Marne
(34.0056°N, 117.9064°W)
Time: 15:35:03
(UTC+00:00)

Envisat - Pass Details

Date: 18 January 2020
Orbit: 764 x 766 km, 98.1° (Epoch: 24 February)

Event Time Altitude Azimuth Distance (km) Brightness Sun altitude
Rises 01:42:25 0° 164° (SSE) 3,217 6.3 -7.6°
Reaches altitude 10° 01:44:42 10° 163° (SSE) 2,294 5.5 -8.0°
Maximum altitude 01:49:46 82° 77° (ENE) 777 3.0 -9.0°
Drops below altitude 10° 01:54:51 10° 350° (N) 2,308 5.4 -10.0°
Sets 01:57:10 0° 349° (N) 3,238 6.2 -10.5°
